Location: Newark
(13.6797°N, 8.5297°E)
Time: 17:51:05
(UTC+00:00)

Courier 1B Rocket - Pass Details

Date: 18 January 2020
Orbit: 920 x 1202 km, 28.2° (Epoch: 21 February)

Event Time Altitude Azimuth Distance (km) Brightness Sun altitude
Rises 10:20:02 0° 227° (SW) 3,941 8.3 50.9°
Reaches altitude 10° 10:23:01 10° 221° (SW) 2,940 7.8 51.3°
Maximum altitude 10:29:48 45° 151° (SSE) 1,383 8.6 52.0°
Drops below altitude 10° 10:36:07 10° 80° (E) 2,742 7.6 52.7°
Sets 10:38:49 0° 74° (ENE) 3,654 8.1 52.9°
